GEFSCGP_con_probscp_156.txt.gz
Probability
0 0 0 0 0 0 0 0 0 0 0 0 0 1 2 5 7 7 7 7 8 11 12 13 17 21 20 17 17 17 14 10 6 4 2 1 0 0 0 0 0 0 0 0
0 0 0 0 0 0 0 0 0 0 0 0 0 0 1 3 5 6 7 7 10 13 15 16 18 22 22 21 21 19 15 10 7 5 3 1 0 0 0 0 0 0 0 0
0 0 0 0 0 0 0 0 0 0 0 0 0 0 1 2 3 5 7 9 13 16 18 19 20 24 25 25 24 23 18 14 11 8 7 4 2 2 1 1 0 0 0 0
0 0 0 0 0 0 0 0 0 0 0 0 0 0 0 1 2 4 7 11 16 18 19 19 21 24 26 27 27 25 24 22 19 15 12 10 7 5 3 2 0 0 0 0
0 0 0 0 0 0 0 0 0 0 0 0 0 0 0 1 2 4 6 11 15 18 17 18 19 21 24 27 28 27 28 27 24 20 17 14 11 7 4 2 1 1 1 1
0 0 0 0 0 0 0 0 0 0 0 0 0 0 0 0 1 3 5 9 13 17 17 16 17 18 22 27 28 28 28 27 24 22 20 17 13 9 6 3 2 2 2 2
0 0 0 0 0 0 0 0 0 0 0 0 0 0 0 0 0 1 3 7 12 15 15 14 15 17 21 28 31 29 27 25 24 23 22 19 15 11 8 4 3 2 2 2
0 0 0 0 0 0 0 0 0 0 0 0 0 0 0 0 0 0 2 7 11 12 12 13 14 17 22 27 31 31 28 24 23 24 22 18 14 12 9 4 1 1 1 1
0 0 0 0 0 0 0 0 0 0 0 0 0 0 0 0 0 1 3 6 10 10 11 13 15 17 21 24 27 30 29 25 23 23 21 16 12 11 8 4 1 0 0 0
0 0 0 0 0 0 0 0 0 0 0 0 0 0 0 0 0 1 2 5 8 10 12 15 16 18 20 20 21 23 25 24 22 20 18 15 11 9 7 4 1 1 1 0
0 0 0 0 0 0 0 0 0 0 0 0 0 0 0 0 0 0 2 5 8 10 12 14 16 19 20 18 15 16 18 18 17 16 15 13 11 8 6 4 3 2 2 1
0 0 0 0 0 0 0 0 0 0 0 0 0 0 0 0 0 1 3 6 8 10 11 12 16 20 21 17 12 11 13 14 14 14 14 12 10 9 8 6 4 3 3 2
0 0 0 0 0 0 0 0 0 0 0 0 0 0 0 0 0 2 4 6 8 11 13 14 18 23 22 17 13 11 11 12 14 14 13 11 9 10 9 8 6 4 3 3
0 0 0 0 0 0 0 0 0 0 0 0 0 0 0 0 0 1 4 7 10 15 18 19 22 24 22 18 16 15 12 12 13 15 14 11 9 9 10 9 7 6 4 4
0 0 0 0 0 0 0 0 0 0 0 0 0 0 0 0 0 2 5 9 15 18 21 24 26 25 22 20 18 18 15 12 14 16 14 11 10 10 11 11 10 9 7 6
0 0 0 0 0 0 0 0 0 0 0 0 0 0 0 1 2 4 8 14 20 23 26 31 32 29 26 24 22 20 18 15 17 17 14 13 13 14 13 12 12 13 11 8
0 0 0 0 0 0 0 0 0 0 0 0 1 1 2 3 4 7 11 18 24 28 33 37 35 31 28 26 24 22 21 19 19 19 16 15 17 16 15 13 13 14 12 9
0 0 0 0 0 0 0 0 0 1 2 3 4 5 6 6 7 9 14 20 26 31 35 37 35 30 28 29 28 26 24 21 20 19 17 15 15 14 12 11 12 12 11 9
0 0 0 0 0 0 0 1 2 3 5 7 9 11 9 8 9 13 17 23 28 32 36 38 35 33 34 35 34 32 28 23 20 18 17 15 13 11 10 10 10 10 9 8
0 0 0 0 0 0 0 2 4 4 5 10 14 14 12 11 11 15 23 30 34 37 41 41 40 38 39 39 37 34 29 24 20 17 16 16 14 12 12 11 9 8 7 6
0 0 0 0 0 0 1 3 4 3 5 11 16 17 17 19 20 22 30 38 41 43 45 46 43 39 37 36 34 33 29 25 21 18 17 17 15 13 13 13 10 8 6 5
0 0 0 0 0 0 2 4 4 4 8 13 17 20 23 29 33 34 37 41 44 46 48 48 44 39 35 32 33 33 31 27 24 19 17 17 16 13 12 11 9 9 8 8
0 0 0 1 2 3 5 7 8 10 14 18 21 26 31 36 39 40 40 40 41 43 45 44 41 37 32 30 32 34 32 28 22 16 14 15 15 13 11 10 8 8 8 9
1 1 1 3 6 8 10 11 11 14 19 24 26 31 36 39 38 38 37 34 34 35 34 34 33 30 27 26 27 28 27 23 17 11 10 12 13 12 10 9 8 7 6 5
2 2 2 4 6 10 11 11 12 17 24 28 28 30 35 38 37 35 31 27 24 23 21 20 22 21 19 19 20 20 19 17 14 11 10 10 10 10 8 7 6 4 3 2
1 2 3 4 4 7 9 10 11 18 27 30 27 26 30 35 37 32 27 22 17 15 14 13 13 13 13 14 16 16 15 16 14 12 9 7 8 9 7 4 2 1 1 1

GEFSCGP_con_probscp_162.txt.gz
Probability
0 0 0 0 0 0 0 0 0 0 0 0 0 0 1 2 3 5 6 7 8 11 15 17 15 15 19 24 28 29 29 28 23 18 15 11 5 1 1 2 4 5 5 5
0 0 0 0 0 0 0 0 0 0 0 0 0 0 0 1 3 4 6 7 8 13 19 22 21 17 17 20 25 28 29 29 25 20 17 13 8 5 3 3 4 5 5 5
0 0 0 0 0 0 0 0 0 0 0 0 0 0 0 0 1 3 5 7 8 12 20 26 27 22 17 17 20 25 30 31 29 26 21 17 15 12 9 6 5 5 4 4
0 0 0 0 0 0 0 0 0 0 0 0 0 0 0 0 0 3 6 8 9 10 15 22 25 23 18 16 19 25 31 34 34 32 28 24 22 20 14 9 7 7 5 4
0 0 0 0 0 0 0 0 0 0 0 0 0 0 0 0 0 2 6 9 10 8 10 15 17 18 16 15 20 27 34 37 37 35 32 30 28 24 17 11 10 10 8 6
0 0 0 0 0 0 0 0 0 0 0 0 0 0 0 0 0 1 4 7 7 6 8 11 13 14 14 15 21 30 39 43 41 38 35 31 27 24 18 14 12 13 11 9
0 0 0 0 0 0 0 0 0 0 0 0 0 0 0 0 0 0 2 5 6 6 8 12 14 16 16 17 22 31 40 46 44 40 35 29 24 21 19 15 14 14 13 11
0 0 0 0 0 0 0 0 0 0 0 0 0 0 0 0 0 0 2 6 8 8 9 12 16 18 18 20 25 30 37 42 41 38 35 30 24 19 16 15 13 13 12 10
0 0 0 0 0 0 0 0 0 0 0 0 0 0 0 0 0 0 2 7 11 12 11 13 17 17 18 21 26 29 34 37 37 36 35 33 25 17 13 13 13 12 11 9
0 0 0 0 0 0 0 0 0 0 0 0 0 0 0 0 0 0 3 9 15 17 18 20 22 20 19 22 25 29 34 37 37 36 35 32 26 17 13 12 13 13 12 11
0 0 0 0 0 0 0 0 0 0 0 0 0 0 0 0 0 0 3 10 17 20 23 27 29 27 25 24 25 29 35 38 36 34 34 31 25 19 15 14 15 15 13 12
0 0 0 0 0 0 0 0 0 0 0 0 0 0 0 0 0 1 3 10 17 21 24 27 32 35 33 30 28 30 34 33 31 32 32 30 25 20 16 15 16 15 14 12
0 0 0 0 0 0 0 0 0 0 0 0 0 0 0 0 1 2 5 10 17 21 24 28 35 38 38 35 34 34 33 30 29 31 32 29 25 21 17 15 15 15 15 14
0 0 0 0 0 0 0 0 0 0 0 0 0 0 0 1 3 4 6 12 20 26 30 35 41 45 45 45 45 41 37 35 35 36 35 32 27 22 19 18 18 18 18 17
0 0 0 0 0 0 0 0 0 0 0 0 0 0 2 4 7 7 10 17 26 34 39 45 52 57 58 58 55 50 45 43 43 43 42 37 32 28 26 25 25 25 23 20
0 0 0 0 0 0 0 0 0 0 0 0 0 2 5 8 11 12 17 24 31 38 45 53 62 67 68 65 61 57 52 51 51 50 48 43 38 36 34 31 30 31 28 25
0 0 0 0 0 0 0 0 0 0 1 1 2 5 9 12 14 18 23 29 32 37 47 58 66 70 70 67 65 62 60 59 58 54 50 47 45 43 40 35 34 35 33 31
0 0 0 0 0 0 0 0 0 1 3 4 6 10 13 15 17 21 27 30 33 39 49 58 65 68 68 68 67 66 67 66 62 55 50 49 49 49 47 43 40 38 35 34
1 1 0 0 0 0 0 2 2 3 7 11 14 17 18 17 18 25 33 36 38 44 51 57 63 67 69 71 71 71 72 70 64 56 52 50 51 51 52 50 45 38 33 31
0 0 0 0 0 0 2 4 5 6 13 22 26 28 27 25 27 37 45 45 45 48 52 57 63 68 73 76 76 76 75 71 64 58 55 52 51 49 49 50 46 37 30 27
0 0 0 0 0 3 8 11 12 18 29 39 42 42 40 41 47 53 54 52 51 52 53 58 66 70 74 78 80 78 75 69 61 57 57 55 51 47 44 45 44 38 30 27
1 1 1 2 4 11 20 26 32 42 52 58 58 55 53 57 60 61 59 57 55 55 56 62 68 71 74 77 79 77 72 63 57 56 57 56 52 47 43 43 42 38 33 30
5 5 7 10 15 25 35 43 50 59 66 69 68 65 63 63 63 62 63 60 58 58 59 62 67 71 73 74 75 73 66 59 55 55 56 54 51 47 45 43 42 38 33 30
11 13 16 20 25 33 40 46 52 60 66 69 70 67 64 63 62 63 63 59 56 57 58 60 63 67 68 69 69 67 63 58 56 55 53 50 47 44 43 40 37 33 27 25
16 19 23 25 29 34 38 41 46 54 59 62 64 62 59 57 56 57 57 55 53 54 55 56 58 59 59 59 59 59 59 57 55 52 49 45 42 39 35 30 25 20 17 15
19 22 24 26 29 35 39 40 42 48 54 56 57 57 53 51 50 50 51 53 53 52 52 53 54 53 50 50 51 53 55 55 52 48 44 42 40 35 29 23 17 10 7 6

GEFSCGP_con_probscp_168.txt.gz
Probability
0 0 0 0 0 0 0 0 0 0 0 0 0 1 2 4 7 13 22 31 38 41 42 47 52 53 58 63 60 51 47 47 44 37 31 26 19 14 11 11 14 17 17 16
0 0 0 0 0 0 0 0 0 0 0 0 1 2 3 5 6 12 21 29 35 40 45 52 56 57 61 65 61 55 52 51 47 40 34 30 25 20 15 15 18 20 19 18
0 0 0 0 0 0 0 0 0 0 0 0 1 2 3 5 6 9 17 23 29 38 49 56 59 61 64 66 65 61 60 58 54 47 39 35 35 30 22 21 25 24 22 20
0 0 0 0 0 0 0 0 0 0 0 0 1 2 3 5 6 7 11 16 23 35 50 57 57 59 62 65 67 68 67 65 60 54 44 39 39 37 30 28 29 27 23 20
0 0 0 0 0 0 0 0 0 0 0 0 0 1 3 4 4 6 7 10 18 31 44 51 52 53 56 62 68 71 72 71 66 59 50 43 39 38 35 33 31 27 23 20
0 0 0 0 0 0 0 0 0 0 0 0 0 1 2 2 2 4 6 9 15 24 34 43 47 49 51 56 65 73 77 76 69 62 56 50 44 41 39 36 32 26 22 20
0 0 0 0 0 0 0 0 0 0 0 0 0 0 0 0 0 2 6 11 16 20 26 37 45 49 51 52 60 73 80 79 72 66 61 57 50 45 43 40 33 26 22 21
0 0 0 0 0 0 0 0 0 0 0 0 0 0 0 1 1 3 8 12 16 18 23 32 44 50 51 51 59 73 80 79 75 70 65 59 52 46 43 41 35 27 22 20
0 0 0 0 0 0 0 0 0 0 0 0 0 0 1 2 2 4 8 12 15 18 24 33 43 50 52 54 63 73 77 76 75 72 66 58 51 47 42 38 34 28 22 19
0 0 0 0 0 0 0 0 0 0 0 0 0 0 2 4 4 4 6 10 14 19 26 35 44 51 55 59 67 74 75 73 72 70 64 57 53 50 44 37 33 29 25 22
0 0 0 0 0 0 0 0 0 0 0 0 0 0 2 4 5 5 6 9 16 22 28 36 46 54 59 63 69 75 76 74 73 70 64 59 56 53 49 43 38 35 30 27
0 0 0 0 0 0 0 0 0 0 0 0 0 0 2 4 8 10 12 16 23 29 33 39 47 55 62 66 71 76 76 76 74 71 67 62 59 57 55 51 47 43 37 34
0 0 0 0 0 0 0 0 0 0 0 0 0 1 3 7 11 15 19 25 32 38 41 48 56 63 68 73 77 78 76 75 74 72 69 67 64 63 62 60 56 50 43 39
0 0 0 0 0 0 0 0 0 0 0 0 1 2 6 10 14 18 24 30 38 45 50 58 69 77 81 84 85 82 77 75 74 73 72 71 69 66 65 64 59 55 48 43
0 0 0 0 0 0 0 0 0 0 0 0 2 4 8 13 17 21 28 36 43 52 59 66 78 88 91 92 92 87 82 79 77 76 74 72 69 66 64 62 59 57 52 46
0 0 0 0 0 0 0 0 0 0 0 1 3 6 11 16 20 24 32 41 51 61 68 75 84 91 93 93 91 88 86 84 81 78 75 71 69 67 64 62 60 58 54 50
4 5 3 1 0 0 0 0 0 1 1 3 5 10 16 22 27 33 40 47 55 66 75 83 88 90 90 90 88 86 86 86 84 80 74 71 70 70 67 65 62 61 59 58
9 12 8 2 0 0 0 0 1 2 3 6 10 16 24 30 37 45 50 53 59 69 79 85 88 89 90 89 88 86 85 86 85 81 76 72 71 72 70 67 64 64 65 64
11 15 11 2 0 0 0 1 2 3 6 10 16 24 30 34 41 51 57 62 68 75 80 83 86 88 91 92 91 88 86 86 86 83 79 75 73 70 68 65 64 65 66 64
7 10 7 2 1 0 1 3 4 6 12 19 25 32 38 42 49 60 69 74 78 81 81 82 84 87 90 92 92 90 88 87 86 83 80 78 73 67 63 63 63 65 63 61
2 4 3 2 1 2 5 9 13 21 31 36 39 45 51 59 68 76 83 84 82 82 82 82 84 87 88 89 90 89 87 86 84 81 79 78 73 65 62 63 64 64 61 58
0 1 2 4 7 15 23 28 36 49 55 55 56 61 67 73 80 85 88 87 83 80 81 82 84 86 86 86 86 84 82 81 80 78 79 77 72 65 63 62 63 62 59 56
4 5 9 14 23 36 44 48 56 65 68 66 67 72 76 79 81 84 86 86 83 79 79 80 81 82 83 82 81 79 76 76 77 77 78 76 70 65 62 60 58 56 53 51
9 12 19 28 36 45 50 52 56 61 65 66 69 73 76 77 78 80 83 84 83 80 79 78 77 75 74 74 74 74 72 73 75 76 75 71 64 59 56 53 47 43 40 39
13 17 27 37 42 45 48 47 47 52 57 60 63 67 69 68 69 72 76 80 80 78 76 72 68 65 65 66 66 67 69 71 72 72 68 61 55 51 47 40 31 25 23 22
13 19 31 40 43 47 49 46 43 47 52 54 58 62 62 60 61 64 68 74 76 74 70 65 59 58 60 60 60 62 66 69 70 67 61 55 51 48 42 32 19 12 10 10

GEFSCGP_con_probscp_174.txt.gz
Probability
0 0 0 0 0 0 0 0 0 0 0 1 3 5 6 8 11 15 19 21 23 21 21 30 40 44 40 36 33 30 27 23 16 11 9 6 3 1 0 1 1 1 0 0
0 0 0 0 0 0 0 0 0 0 0 1 3 5 6 8 11 16 21 23 23 23 24 30 40 46 44 39 34 30 27 23 17 12 9 6 3 1 0 1 2 3 2 1
0 0 0 0 0 0 0 0 0 0 0 1 2 3 5 8 12 17 21 23 24 24 25 30 37 44 46 43 36 32 29 26 20 14 11 8 5 2 1 1 2 4 4 4
0 0 0 0 0 0 0 0 0 0 0 0 1 1 3 8 13 16 18 22 24 24 25 27 31 37 42 44 41 37 34 31 25 19 15 11 7 4 2 1 1 3 5 5
0 0 0 0 0 0 0 0 0 0 0 0 0 0 2 6 11 14 15 18 22 24 25 26 27 29 34 40 42 40 39 36 32 26 20 14 8 4 2 2 3 3 3 4
0 0 0 0 0 0 0 0 0 0 0 0 0 0 1 3 7 10 13 15 18 22 24 25 25 25 28 33 39 41 41 40 37 31 24 16 9 4 4 5 6 5 4 4
0 0 0 0 0 0 0 0 0 0 0 0 0 0 1 2 4 7 11 15 19 22 24 24 24 24 26 30 36 42 45 45 42 36 29 20 12 8 8 8 8 8 8 8
0 0 0 0 0 0 0 0 0 0 0 0 0 0 0 2 5 8 11 17 24 26 26 25 25 24 27 32 37 43 47 48 46 40 31 23 16 12 10 8 8 8 9 9
0 0 0 0 0 0 0 0 0 0 0 0 0 0 0 2 7 10 14 22 28 29 27 26 25 26 28 31 37 42 46 46 44 39 31 24 18 13 10 7 5 5 6 7
0 0 0 0 0 0 0 0 0 0 0 0 0 0 0 3 8 14 19 26 30 29 25 23 25 28 29 32 38 43 45 45 42 37 32 26 19 13 9 6 4 4 5 6
0 0 0 0 0 0 0 0 0 0 0 0 0 0 0 2 9 18 23 26 28 26 22 23 27 30 33 37 43 47 48 48 44 41 37 30 21 14 10 6 4 4 5 5
0 0 0 0 0 0 0 0 0 0 0 0 0 0 1 4 12 20 25 29 28 25 25 29 32 34 37 41 46 50 53 53 51 48 43 34 24 19 14 9 5 4 5 5
0 0 0 0 0 0 0 0 0 0 0 0 0 1 4 10 16 22 29 33 33 32 32 35 37 38 39 41 44 48 52 55 54 51 45 36 28 25 22 15 10 7 8 8
0 0 0 0 0 0 0 0 0 0 0 1 1 3 10 17 22 26 32 36 37 37 38 38 38 39 41 40 41 43 46 52 55 52 47 40 34 29 26 22 16 13 13 14
0 0 0 0 0 0 0 0 0 0 0 2 3 7 14 21 27 32 35 37 37 36 37 36 36 38 41 41 40 40 42 50 55 55 50 45 40 33 29 26 22 18 18 18
0 0 0 0 0 0 0 0 1 1 1 4 6 10 16 23 31 35 39 42 40 36 34 33 35 40 43 44 44 42 41 47 55 56 52 49 46 41 34 30 26 23 20 18
0 0 0 0 0 0 0 1 2 2 4 7 10 13 18 26 33 39 44 47 46 42 37 36 41 48 50 50 51 50 49 52 57 58 56 53 52 47 39 34 31 27 21 17
0 0 0 0 0 0 0 1 2 4 8 11 14 18 24 32 41 47 49 51 52 51 48 46 52 57 56 55 58 60 61 64 64 62 59 57 55 50 43 39 36 30 23 19
0 0 0 0 0 0 1 2 3 6 10 14 19 25 32 42 52 57 56 55 57 58 56 57 61 61 58 56 59 62 64 68 70 67 62 58 55 52 47 43 38 31 25 22
0 0 0 0 0 0 2 4 6 8 12 18 25 32 37 44 54 61 61 60 61 62 61 62 63 61 56 55 58 59 60 64 68 68 64 59 54 51 47 42 36 30 26 25
0 0 0 0 0 1 3 7 8 10 15 23 31 37 41 45 52 58 61 62 63 64 64 61 59 57 55 55 57 58 58 59 62 64 63 59 55 50 45 38 32 28 26 27
0 0 0 0 0 1 3 7 9 12 18 28 36 43 46 49 52 56 59 61 63 63 62 59 56 55 55 55 56 58 58 56 54 55 57 56 52 47 39 32 27 25 25 25
0 0 1 1 3 5 7 9 12 16 23 32 40 46 49 49 51 54 58 60 60 58 55 52 51 51 52 52 54 57 55 52 49 47 46 45 43 39 32 27 24 24 25 26
0 2 4 6 9 12 15 17 19 22 27 36 43 46 47 47 49 52 55 56 55 51 46 43 43 45 46 48 51 54 53 50 47 42 37 34 32 29 26 23 22 23 25 25
2 5 8 10 11 14 19 22 23 25 29 36 43 44 44 45 46 48 48 46 44 42 38 36 37 39 41 43 47 49 48 47 46 41 35 30 25 24 22 19 17 17 18 18
4 6 8 9 8 11 17 21 23 25 29 35 40 42 41 41 42 44 42 38 34 34 35 33 33 36 37 39 43 45 43 45 45 41 35 29 23 20 19 15 12 11 11 11

GEFSCGP_con_probscp_180.txt.gz
Probability
0 0 0 0 0 0 0 0 0 0 0 0 0 0 0 1 4 8 8 5 2 2 2 2 3 5 9 10 10 8 5 1 1 1 1 0 0 0 0 0 0 0 1 1
0 0 0 0 0 0 0 0 0 0 0 0 0 0 0 2 4 7 8 6 3 3 3 3 3 4 7 10 10 9 6 2 1 1 0 0 0 0 0 0 0 1 2 2
0 0 0 0 0 0 0 0 0 0 0 0 0 0 0 1 3 6 7 6 4 3 3 4 3 3 5 9 10 9 7 4 2 2 1 1 2 1 0 0 0 1 1 1
0 0 0 0 0 0 0 0 0 0 0 0 0 0 0 0 2 4 6 6 5 4 4 4 3 4 5 8 10 11 9 7 4 3 3 3 2 1 0 0 0 0 1 1
0 0 0 0 0 0 0 0 0 0 0 0 0 0 0 0 1 3 4 4 5 4 4 5 5 6 7 8 11 12 11 9 7 5 4 4 2 1 0 0 0 0 0 1
0 0 0 0 0 0 0 0 0 0 0 0 0 0 0 0 0 2 3 3 4 4 6 7 8 8 9 10 12 13 12 11 10 8 6 5 3 2 1 0 0 0 0 1
0 0 0 0 0 0 0 0 0 0 0 0 0 0 0 0 0 2 3 3 4 5 7 9 10 9 9 11 13 14 14 13 13 11 8 6 4 3 2 1 0 0 0 0
0 0 0 0 0 0 0 0 0 0 0 0 0 0 0 0 0 1 2 4 6 7 8 10 12 11 11 12 14 16 15 14 13 11 8 7 5 5 4 1 0 0 0 0
0 0 0 0 0 0 0 0 0 0 0 0 0 0 0 0 0 0 2 5 8 9 11 13 13 12 12 12 14 16 15 12 10 10 10 9 7 6 5 2 1 0 1 1
0 0 0 0 0 0 0 0 0 0 0 0 0 0 0 0 0 0 2 5 8 10 12 14 13 11 10 11 13 15 14 10 8 9 11 11 9 7 5 4 2 1 2 3
0 0 0 0 0 0 0 0 0 0 0 0 0 0 0 0 0 1 3 6 9 11 13 14 14 12 11 12 14 16 15 11 9 9 11 14 12 9 7 6 4 2 2 3
0 0 0 0 0 0 0 0 0 0 0 0 0 0 0 0 0 2 5 9 11 12 14 16 17 17 16 15 15 17 17 15 11 10 12 16 15 12 9 7 5 4 3 3
0 0 0 0 0 0 0 0 0 0 0 0 0 0 0 0 2 4 8 11 13 14 16 18 18 19 19 17 17 19 20 19 17 14 15 17 17 14 11 8 7 6 5 5
0 0 0 0 0 0 0 0 0 0 0 0 0 1 0 1 4 7 10 14 16 17 18 18 18 18 18 18 19 21 23 24 25 22 20 21 21 18 15 12 11 9 8 8
0 0 0 0 0 0 0 0 0 0 0 0 0 0 0 2 5 9 13 17 20 20 19 18 18 18 18 17 19 21 22 25 28 27 26 27 28 27 23 19 14 10 9 10
0 0 0 0 0 0 0 0 0 0 0 0 0 0 2 5 9 12 15 20 24 24 21 20 21 20 19 19 20 21 23 26 29 30 30 34 37 37 31 23 15 10 9 10
0 0 0 0 0 0 0 0 1 2 2 1 1 2 6 10 13 14 16 21 25 26 24 23 25 23 21 23 25 26 28 30 33 34 34 38 41 42 37 29 20 14 12 12
0 0 0 0 0 0 0 0 2 3 3 3 3 6 10 14 16 16 16 20 23 24 24 26 27 26 25 28 31 32 34 36 39 39 37 38 42 42 40 35 27 20 17 16
0 0 0 0 0 0 0 0 2 3 4 5 7 9 14 18 20 18 17 21 23 25 26 27 28 28 29 32 35 37 39 41 42 41 38 39 40 41 40 37 29 23 20 18
0 0 0 0 0 0 0 0 2 3 5 7 10 13 17 21 21 20 22 26 29 30 30 29 30 30 32 36 39 42 42 43 43 40 38 38 37 36 36 35 29 25 22 20
0 0 0 0 0 0 0 1 1 2 4 9 14 17 19 24 24 24 29 34 36 35 33 32 32 32 34 40 44 45 45 44 42 39 37 37 35 32 31 32 30 26 23 21
0 0 0 0 0 0 1 2 2 1 3 9 15 18 20 25 29 30 34 38 37 35 33 32 32 33 35 39 43 45 45 43 40 38 36 35 34 32 30 28 26 22 20 19
0 0 0 1 1 1 2 3 4 4 4 7 13 17 20 24 29 33 36 37 33 31 31 32 33 34 34 36 38 40 41 39 37 34 32 31 30 29 28 25 21 18 17 18
0 1 2 4 4 4 4 5 7 6 6 8 12 16 20 22 26 30 33 32 30 28 30 32 33 33 33 33 33 33 33 34 33 31 28 26 25 25 24 21 17 15 14 15
1 2 4 5 5 5 5 6 8 7 8 10 14 16 18 19 22 24 24 24 25 25 27 31 32 31 30 30 29 29 29 29 30 29 26 24 22 21 20 17 14 10 8 8
0 2 4 4 4 4 5 7 9 8 9 12 15 15 15 16 18 19 17 17 19 21 24 29 32 31 28 27 28 28 28 27 28 28 26 23 20 19 17 14 10 6 4 3